[[{"header":{"parameterUnit":"m.s-1","parameterCategory":1,"la1":30.2991,"la2":30.254,"lo1":-89.0895,"lo2":-89.0444,"dy":0.0017,"dx":0.0017,"nx":28,"ny":28,"refTime":"2023-11-10T09:00:00:Z","depth":0,"parameterNumber":2,"parameterNumberName":"U-component_of_WINDS"},"data":[0,0,0,0,0,0,0,0,0,0,0,0,0,0,0,0,0,0,0,0,0,0,0,0,0,0,0,0,0,0,0,0,0,0,0,0,0,0,0,0,0,0,0,0,0,0,0,0,0,0,0,0,0,0,0,0,0,0,-2.8167,-2.817,0,-2.8402,-2.8405,-2.8407,-2.8464,-2.8462,-2.8461,-2.8459,-2.8698,-2.8706,-2.8714,0,0,0,0,0,0,0,0,0,0,0,0,0,-2.7768,-2.7775,-2.8167,-2.817,-2.8173,-2.8402,-2.8405,-2.8408,-2.8464,-2.8462,-2.846,-2.8458,-2.8696,-2.8705,-2.8714,0,0,0,0,0,0,0,0,0,0,0,0,0,-2.7966,-2.7777,-2.8167,-2.8228,-2.8236,-2.8401,-2.8405,-2.8409,-2.8464,-2.8462,-2.846,-2.8457,-2.8693,-2.8704,-2.8716,-2.8835,0,0,-2.8752,-2.8757,0,0,0,0,0,0,0,0,-2.7954,-2.798,-2.8216,-2.8224,-2.8234,-2.8401,-2.8352,-2.8552,-2.8465,-2.8378,-2.8459,-2.8456,-2.8601,-2.862,-2.867,-2.8846,-2.8857,-2.8753,-2.876,-2.8765,-2.8768,0,0,0,0,0,0,0,-2.794,-2.797,-2.826,-2.822,-2.823,-2.8245,-2.827,-2.839,-2.85,-2.8385,-2.839,-2.8417,-2.8606,-2.8658,-2.8676,-2.886,-2.8752,-2.8763,-2.877,-2.8775,-2.915,-2.9153,0,0,0,0,0,0,-2.7916,-2.7959,-2.8253,-2.8267,-2.8085,-2.8254,-2.8282,-2.835,-2.8499,-2.8519,-2.8419,-2.8419,-2.8639,-2.8662,-2.8684,-2.8836,-2.8765,-2.8776,-2.8782,-2.9147,-2.9151,-2.9154,0,0,0,0,0,0,-2.7907,-2.7942,-2.8243,-2.8114,-2.8154,-2.8263,-2.8338,-2.8356,-2.8408,-2.8524,-2.8544,-2.8452,-2.8638,-2.8668,-2.8798,-2.8845,-2.8781,-2.8792,-2.9144,-2.9148,-2.9152,-2.9139,0,0,0,0,0,0,-2.7895,-2.7938,-2.7984,-2.8115,-2.816,-2.8353,-2.8341,-2.8362,-2.8429,-2.8431,-2.8561,-2.858,-2.8639,-2.878,-2.881,-2.886,-2.8801,-2.914,-2.9146,-2.9151,-2.9136,-2.9142,-2.9148,0,0,0,0,0,-2.7881,-2.797,-2.7986,-2.8021,-2.822,-2.8355,-2.8381,-2.8447,-2.8432,-2.848,-2.8555,-2.8576,-2.8835,-2.8793,-2.8827,-2.8881,-2.9137,-2.9144,-2.9151,-2.9133,-2.9141,-2.9148,0,0,0,0,0,0,-2.7841,-2.7988,-2.8008,-2.8142,-2.8236,-2.8364,-2.8426,-2.8453,-2.8553,-2.8551,-2.8628,-2.8657,-2.8783,-2.8845,-2.8796,-2.9007,-2.8986,-2.9,-2.8961,-2.897,-2.8976,-2.8959,-2.8811,0,0,0,0,0,-2.7848,-2.7945,-2.8069,-2.8175,-2.8221,-2.8316,-2.8377,-2.842,-2.852,-2.856,-2.8644,-2.874,-2.8844,-2.891,-2.9012,-2.9145,-2.9175,-2.92,-2.9206,-2.921,-2.9221,-2.9299,-2.9312,-2.9176,-2.9176,-2.9175,0,0,-2.7862,-2.7955,-2.8011,-2.8169,-2.8247,-2.8347,-2.8348,-2.8453,-2.8528,-2.8576,-2.8705,-2.877,-2.8883,-2.9016,-2.9078,-2.9071,-2.9266,-2.9219,-2.9221,-2.923,-2.9307,-2.932,-2.9331,-2.918,-2.9179,-2.9179,0,0,-2.7941,-2.802,-2.8119,-2.8197,-2.8316,-2.8379,-2.8402,-2.8528,-2.8574,-2.8704,-2.8743,-2.8833,-2.9009,-2.9089,-2.9152,-2.9264,-2.9289,-2.9295,-2.9328,-2.9403,-2.9413,-2.9423,-2.9465,-2.9479,-2.9306,-2.9306,-2.9306,0,-2.7944,-2.8096,-2.8166,-2.827,-2.8339,-2.8388,-2.8489,-2.8562,-2.8707,-2.8754,-2.8744,-2.8968,-2.9047,-2.9201,-2.9229,-2.9278,-2.9308,-2.9281,-2.9406,-2.9417,-2.9427,-2.9468,-2.9483,-2.9306,-2.9306,-2.9306,-2.9306,0,-2.8095,-2.82,-2.8265,-2.8406,-2.8483,-2.8584,-2.867,-2.874,-2.8777,-2.8841,-2.8975,-2.9072,-2.9195,-2.9235,-2.9271,-2.9395,-2.9387,-2.9391,-2.9372,-2.9439,-2.9479,-2.9495,-2.9306,-2.9306,-2.9306,-2.9306,0,0,-2.8152,-2.8333,-2.8356,-2.8422,-2.8558,-2.864,-2.8745,-2.8867,-2.8926,-2.9025,-2.9116,-2.9265,-2.927,-2.9342,-2.9389,-2.9454,-2.954,-2.9451,-2.9455,-2.9465,-2.9684,-2.9681,-2.9698,-2.9556,-2.956,-2.9562,-2.9675,0,-2.8248,-2.8438,-2.8506,-2.8662,-2.8761,-2.8811,-2.8903,-2.8997,-2.906,-2.9153,-2.9223,-2.9329,-2.9327,-2.9371,-2.9438,-2.9515,-2.9585,-2.9507,-2.9643,-2.9647,-2.9614,-2.9718,-2.9715,-2.9817,-2.9691,-2.9694,-2.9696,0,-2.8385,-2.8488,-2.8655,-2.8781,-2.8825,-2.8907,-2.9025,-2.9114,-2.9222,-2.9264,-2.9346,-2.9388,-2.9501,-2.9476,-2.9633,-2.9579,-2.9639,-2.9685,-2.9691,-2.9706,-2.9675,-2.9738,-2.9851,-2.9866,-2.972,-2.9718,-2.9717,0,-2.8412,-2.8592,-2.8716,-2.8771,-2.8921,-2.8977,-2.9042,-2.9148,-2.9218,-2.9322,-2.9369,-2.9483,-2.9546,-2.9635,-2.9708,-2.9682,-2.986,-2.984,-2.9899,-2.9897,-2.9934,-2.993,-3.0059,-2.9971,-2.997,-2.997,-2.997,0,-2.8512,-2.8612,-2.8731,-2.8807,-2.8922,-2.8999,-2.9111,-2.9179,-2.9273,-2.9364,-2.9414,-2.9498,-2.959,-2.9686,-2.9744,-2.9867,-2.9895,-2.9932,-2.9947,-2.9929,-2.9924,-2.9969,-2.9964,-2.9974,-2.9973,-2.9972,-2.9972,0,-2.8561,-2.8644,-2.8783,-2.8915,-2.8951,-2.9029,-2.9143,-2.9219,-2.9286,-2.9401,-2.9432,-2.9537,-2.9653,-2.9735,-2.9884,-2.9924,-3.0057,-3.007,-3.0021,-3.0028,-3.0083,-3.0077,-3.0245,-3.0271,-3.0164,-3.0165,-3.0166,0,-2.8619,-2.8698,-2.884,-2.8905,-2.8971,-2.9074,-2.9147,-2.9227,-2.93,-2.9432,-2.9493,-2.9613,-2.9714,-2.9898,-2.9987,-3.0103,-3.012,-3.0171,-3.0137,-3.0117,-3.0122,-3.0117,-3.0126,-3.0175,-3.0176,-3.0177,-3.0177,0,-2.8715,-2.8753,-2.8855,-2.8974,-2.906,-2.9156,-2.9253,-2.9304,-2.9401,-2.9481,-2.9602,-2.968,-2.9835,-2.9954,-3.0079,-3.0147,-3.0179,-3.0188,-3.0208,-3.019,-3.0159,-3.0178,-3.0035,-3.0183,-3.0183,-3.0182,-3.0182,-3.0182,-2.8771,-2.8845,-2.8957,-2.907,-2.9153,-2.9243,-2.9323,-2.94,-2.9503,-2.9635,-2.9677,-2.9802,-2.9912,-3.0083,-3.0152,-3.0253,-3.0249,-3.0278,-3.0285,-3.0291,-3.0291,-3.0143,-3.0275,-3.0275,-3.0275,-3.0275,-3.0275,0,-2.887,-2.8946,-2.905,-2.9185,-2.9275,-2.9299,-2.9409,-2.9483,-2.9593,-2.9693,-2.9792,-2.9932,-3.0049,-3.0149,-3.027,-3.0332,-3.035,-3.0361,-3.0357,-3.0373,-3.0287,-3.0258,-3.0344,-3.0344,-3.0344,-3.0344,-3.0344,-3.0344,-2.8932,-2.9059,-2.9111,-2.928,-2.9355,-2.9479,-2.954,-2.9625,-2.9705,-2.9859,-2.9958,-3.0022,-3.0123,-3.0253,-3.0362,-3.0389,-3.0431,-3.0439,-3.0469,-3.0387,-3.0379,-3.0371,-3.0344,-3.0448,-3.0448,-3.0548,-3.0549,-3.0549]},{"header":{"parameterUnit":"m.s-1","parameterCategory":1,"la1":30.2991,"la2":30.254,"lo1":-89.0895,"lo2":-89.0444,"dy":0.0017,"dx":0.0017,"nx":28,"ny":28,"refTime":"2023-11-10T09:00:00:Z","depth":0,"parameterNumber":3,"parameterNumberName":"V-component_of_WINDS"},"data":[0,0,0,0,0,0,0,0,0,0,0,0,0,0,0,0,0,0,0,0,0,0,0,0,0,0,0,0,0,0,0,0,0,0,0,0,0,0,0,0,0,0,0,0,0,0,0,0,0,0,0,0,0,0,0,0,0,0,-5.9404,-5.9403,0,-5.9237,-5.9235,-5.9233,-5.9068,-5.9066,-5.9063,-5.9061,-5.888,-5.8877,-5.8874,0,0,0,0,0,0,0,0,0,0,0,0,0,-5.9569,-5.9567,-5.9404,-5.9402,-5.94,-5.9237,-5.9235,-5.9233,-5.9068,-5.9066,-5.9063,-5.906,-5.8881,-5.8877,-5.8874,0,0,0,0,0,0,0,0,0,0,0,0,0,-5.9459,-5.9566,-5.9405,-5.9299,-5.9288,-5.9238,-5.9235,-5.9232,-5.9069,-5.9065,-5.9062,-5.9059,-5.8882,-5.8878,-5.8874,-5.8912,0,0,-5.8861,-5.8859,0,0,0,0,0,0,0,0,-5.9466,-5.9453,-5.9316,-5.9306,-5.9293,-5.917,-5.9226,-5.9124,-5.9069,-5.9152,-5.9061,-5.9058,-5.8978,-5.8966,-5.8941,-5.8903,-5.8895,-5.886,-5.8858,-5.8856,-5.8855,0,0,0,0,0,0,0,-5.9473,-5.9459,-5.9338,-5.9315,-5.9301,-5.9255,-5.9236,-5.9206,-5.9085,-5.9144,-5.9132,-5.9115,-5.8971,-5.8946,-5.8936,-5.8893,-5.886,-5.8856,-5.8854,-5.8852,-5.8869,-5.8871,0,0,0,0,0,0,-5.9499,-5.9467,-5.9343,-5.9333,-5.9374,-5.9255,-5.9234,-5.9213,-5.9085,-5.9062,-5.9118,-5.9108,-5.8955,-5.8941,-5.8929,-5.896,-5.8856,-5.8852,-5.8849,-5.8866,-5.8869,-5.8873,0,0,0,0,0,0,-5.9503,-5.9489,-5.935,-5.9396,-5.9375,-5.9256,-5.9234,-5.9211,-5.9186,-5.9065,-5.9041,-5.9115,-5.8952,-5.8935,-5.8916,-5.8952,-5.885,-5.8846,-5.8862,-5.8867,-5.8871,-5.9027,0,0,0,0,0,0,-5.9509,-5.9492,-5.9509,-5.9398,-5.9374,-5.9345,-5.9236,-5.921,-5.918,-5.9165,-5.9056,-5.9034,-5.8948,-5.8923,-5.8912,-5.8944,-5.8843,-5.8858,-5.8864,-5.8869,-5.9018,-5.9036,-5.9052,0,0,0,0,0,-5.9515,-5.9559,-5.9511,-5.9496,-5.9393,-5.9348,-5.9333,-5.9235,-5.9184,-5.9197,-5.9118,-5.9038,-5.895,-5.8923,-5.8909,-5.894,-5.8856,-5.8863,-5.8869,-5.901,-5.9033,-5.9051,0,0,0,0,0,0,-5.9674,-5.9542,-5.9488,-5.9498,-5.9435,-5.932,-5.9334,-5.9263,-5.9211,-5.92,-5.9077,-5.9053,-5.9047,-5.8991,-5.8964,-5.8966,-5.8891,-5.8895,-5.9003,-5.9023,-5.904,-5.9053,-5.8839,0,0,0,0,0,-5.9711,-5.9689,-5.9573,-5.9593,-5.9565,-5.9455,-5.9432,-5.9362,-5.9291,-5.9263,-5.9183,-5.9114,-5.9069,-5.9043,-5.8997,-5.9009,-5.8979,-5.9022,-5.9039,-5.9054,-5.9058,-5.9053,-5.907,-5.8895,-5.8895,-5.8894,0,0,-5.9786,-5.9711,-5.9704,-5.9623,-5.9567,-5.9542,-5.9434,-5.9414,-5.9393,-5.9259,-5.9236,-5.9175,-5.9089,-5.9084,-5.9078,-5.9037,-5.91,-5.9062,-5.9075,-5.9071,-5.9062,-5.9079,-5.9094,-5.8899,-5.8898,-5.8898,0,0,-5.9909,-5.9853,-5.9861,-5.9806,-5.9722,-5.9648,-5.965,-5.9545,-5.9499,-5.9476,-5.9372,-5.9343,-5.9272,-5.9213,-5.9174,-5.927,-5.9191,-5.9257,-5.9345,-5.9342,-5.9355,-5.9367,-5.9396,-5.9409,-5.9262,-5.9263,-5.9263,0,-6.0012,-5.9975,-5.9873,-5.9858,-5.9823,-5.9702,-5.9706,-5.9656,-5.9561,-5.9537,-5.9493,-5.9397,-5.9331,-5.9308,-5.9331,-5.9305,-5.9298,-5.9269,-5.9363,-5.9373,-5.9382,-5.9408,-5.942,-5.9271,-5.927,-5.9269,-5.9268,0,-6.0103,-6.0079,-6.0095,-6.0007,-5.9973,-5.9969,-5.986,-5.9838,-5.9769,-5.9698,-5.9671,-5.9587,-5.9518,-5.9508,-5.9441,-5.9473,-5.9449,-5.9386,-5.9308,-5.9409,-5.9431,-5.9441,-5.9283,-5.928,-5.9277,-5.9275,0,0,-6.0324,-6.0179,-6.0186,-6.0143,-6.0039,-6.0016,-6.0002,-5.9938,-5.9918,-5.9854,-5.9836,-5.9776,-5.9714,-5.967,-5.9594,-5.9592,-5.9666,-5.9526,-5.9522,-5.9552,-5.9689,-5.9737,-5.9751,-5.9614,-5.9615,-5.9617,-5.9695,0,-6.0428,-6.0402,-6.0307,-6.0306,-6.0278,-6.016,-6.0147,-6.0079,-6.0011,-5.9973,-5.9895,-5.9854,-5.9779,-5.975,-5.9743,-5.9659,-5.9691,-5.9652,-5.9589,-5.9588,-5.9613,-5.9763,-5.9814,-5.9893,-5.9704,-5.9705,-5.9706,0,-6.0547,-6.0493,-6.049,-6.0383,-6.0368,-6.0359,-6.0289,-6.0257,-6.0174,-6.0124,-6.0073,-5.9987,-5.9959,-5.9888,-5.9843,-5.9819,-5.9786,-5.974,-5.9741,-5.973,-5.9653,-5.9752,-5.9916,-5.9927,-5.972,-5.9719,-5.9718,0,-6.0704,-6.063,-6.0618,-6.0585,-6.0461,-6.0456,-6.0403,-6.0318,-6.0283,-6.022,-6.0195,-6.0129,-6.0092,-6.0039,-5.9935,-5.9894,-5.99,-5.9821,-5.9852,-5.9855,-5.9858,-5.9859,-6.0016,-5.9843,-5.9842,-5.9842,-5.9842,0,-6.0829,-6.0831,-6.0686,-6.0679,-6.0675,-6.0563,-6.0561,-6.0496,-6.042,-6.0393,-6.0285,-6.0261,-6.0127,-6.0084,-6.0002,-5.9974,-5.9959,-5.9913,-5.989,-5.9921,-5.9927,-5.9897,-5.9888,-5.9845,-5.9845,-5.9844,-5.9843,0,-6.1004,-6.0909,-6.0887,-6.0771,-6.0741,-6.0743,-6.064,-6.0625,-6.0549,-6.0515,-6.0501,-6.038,-6.0324,-6.0215,-6.0129,-6.0073,-6.0061,-6.0024,-6.0091,-6.0077,-6.0112,-6.0109,-6.0254,-6.0264,-6.0088,-6.009,-6.0092,0,-6.109,-6.1089,-6.0973,-6.0949,-6.0901,-6.0863,-6.0827,-6.0715,-6.068,-6.0583,-6.0578,-6.0514,-6.0457,-6.0372,-6.0272,-6.0203,-6.0161,-6.0216,-6.015,-6.0179,-6.0157,-6.0157,-6.0154,-6.0231,-6.0234,-6.0236,-6.0238,0,-6.125,-6.1202,-6.1157,-6.1094,-6.1055,-6.0999,-6.0937,-6.0921,-6.0792,-6.0758,-6.0702,-6.0658,-6.0568,-6.0504,-6.0419,-6.0357,-6.0273,-6.0259,-6.0262,-6.0292,-6.0329,-6.0305,-6.0129,-6.0256,-6.0254,-6.0253,-6.0252,-6.0251,-6.138,-6.1372,-6.1288,-6.124,-6.1181,-6.1125,-6.1103,-6.1024,-6.0977,-6.0898,-6.0833,-6.078,-6.0688,-6.0567,-6.051,-6.0462,-6.0422,-6.0428,-6.0428,-6.043,-6.0441,-6.0339,-6.0446,-6.0445,-6.0444,-6.0444,-6.0443,0,-6.1532,-6.1472,-6.1429,-6.1346,-6.1306,-6.1235,-6.116,-6.113,-6.1086,-6.1011,-6.0957,-6.0888,-6.0823,-6.0717,-6.0642,-6.0623,-6.0582,-6.0607,-6.0606,-6.0591,-6.0483,-6.0487,-6.0641,-6.0641,-6.0641,-6.0641,-6.0641,-6.0641,-6.1606,-6.1587,-6.1528,-6.1476,-6.1413,-6.1365,-6.1327,-6.1271,-6.121,-6.114,-6.1087,-6.102,-6.0929,-6.0845,-6.0779,-6.0749,-6.0724,-6.076,-6.0718,-6.0618,-6.06,-6.0582,-6.0585,-6.0757,-6.0757,-6.0829,-6.0829,-6.083]}]]